When you browse on this site, cookies collect data to enhance your experience and personalize the content and advertising you see.
Visit our Privacy Policy to learn more. By continuing to use the site, you agree to this use of cookies and data.

Hourly Weather Varvarivka

Today, 10 July, Friday

Time Temperature Precipitation Wind Pressure Humidity
00:00 +19°C° 0 mm 3 mps 761 mmHg 58%
01:00 +19°C° 0 mm 3 mps 761 mmHg 59%
02:00 +19°C° 0 mm 2 mps 761 mmHg 60%
03:00 +19°C° 0 mm 2 mps 761 mmHg 61%
04:00 +20°C° 0 mm 2 mps 761 mmHg 61%
05:00 +20°C° 0 mm 2 mps 762 mmHg 61%
06:00 +22°C° 0 mm 3 mps 762 mmHg 57%
07:00 +25°C° 0 mm 4 mps 762 mmHg 53%
08:00 +27°C° 0 mm 5 mps 762 mmHg 48%
09:00 +28°C° 0 mm 5 mps 762 mmHg 47%
10:00 +28°C° 0 mm 6 mps 762 mmHg 46%
11:00 +29°C° 0 mm 6 mps 762 mmHg 44%
12:00 +29°C° 0 mm 6 mps 762 mmHg 43%
13:00 +29°C° 0 mm 6 mps 762 mmHg 42%
14:00 +29°C° 0 mm 6 mps 761 mmHg 40%
15:00 +29°C° 0 mm 6 mps 761 mmHg 41%
16:00 +28°C° 0 mm 5 mps 761 mmHg 42%
17:00 +28°C° 0 mm 5 mps 761 mmHg 43%
18:00 +26°C° 0 mm 4 mps 761 mmHg 49%
19:00 +25°C° 0 mm 3 mps 761 mmHg 56%
20:00 +23°C° 0 mm 2 mps 761 mmHg 63%
21:00 +23°C° 0 mm 2 mps 761 mmHg 64%
22:00 +23°C° 0 mm 2 mps 761 mmHg 66%
23:00 +21°C° 0 mm 3 mps 761 mmHg 67%

Tomorrow, 11 July, Saturday

Time Temperature Precipitation Wind Pressure Humidity
00:00 +21°C° 0 mm 3 mps 761 mmHg 69%
01:00 +21°C° 0 mm 3 mps 761 mmHg 71%
02:00 +21°C° 0 mm 2 mps 761 mmHg 72%
03:00 +21°C° 0 mm 3 mps 761 mmHg 73%
04:00 +22°C° 0 mm 3 mps 761 mmHg 73%
05:00 +22°C° 0 mm 3 mps 761 mmHg 73%
06:00 +25°C° 0 mm 4 mps 761 mmHg 67%
07:00 +27°C° 0 mm 5 mps 761 mmHg 61%
08:00 +28°C° 0 mm 7 mps 761 mmHg 54%
09:00 +29°C° 0 mm 7 mps 761 mmHg 52%
10:00 +29°C° 0 mm 7 mps 760 mmHg 50%
11:00 +31°C° 0 mm 8 mps 760 mmHg 48%
12:00 +30°C° 0 mm 7 mps 760 mmHg 48%
13:00 +30°C° 0 mm 7 mps 760 mmHg 48%
14:00 +30°C° 0 mm 7 mps 759 mmHg 48%
15:00 +29°C° 0 mm 6 mps 759 mmHg 48%
16:00 +29°C° 0 mm 6 mps 759 mmHg 48%
17:00 +28°C° 0 mm 5 mps 758 mmHg 48%
18:00 +27°C° 0 mm 5 mps 758 mmHg 53%
19:00 +25°C° 0 mm 4 mps 758 mmHg 58%
20:00 +24°C° 0 mm 3 mps 758 mmHg 63%
21:00 +22°C° 0 mm 3 mps 758 mmHg 65%
22:00 +22°C° 0 mm 3 mps 757 mmHg 66%
23:00 +22°C° 0 mm 3 mps 757 mmHg 68%

Day after tomorrow, 12 July, Sunday

Time Temperature Precipitation Wind Pressure Humidity
00:00 +22°C° 0 mm 3 mps 757 mmHg 70%
01:00 +24°C° 0 mm 3 mps 756 mmHg 71%
02:00 +24°C° 0 mm 3 mps 756 mmHg 73%
03:00 +24°C° 0 mm 3 mps 756 mmHg 74%
04:00 +24°C° 0 mm 3 mps 756 mmHg 76%
05:00 +25°C° 0 mm 3 mps 755 mmHg 77%
06:00 +27°C° 0 mm 4 mps 755 mmHg 70%
07:00 +29°C° 0 mm 4 mps 755 mmHg 62%
08:00 +32°C° 0 mm 5 mps 755 mmHg 55%
09:00 +32°C° 0.3 mm 5 mps 755 mmHg 53%
10:00 +33°C° 0.3 mm 5 mps 755 mmHg 50%
11:00 +34°C° 0.3 mm 6 mps 755 mmHg 48%
12:00 +34°C° 0.3 mm 5 mps 754 mmHg 48%
13:00 +34°C° 0.3 mm 5 mps 754 mmHg 48%
14:00 +34°C° 0.3 mm 5 mps 754 mmHg 48%
15:00 +34°C° 0.2 mm 4 mps 754 mmHg 49%
16:00 +33°C° 0.2 mm 3 mps 753 mmHg 50%
17:00 +32°C° 0.2 mm 2 mps 753 mmHg 51%
18:00 +30°C° 0 mm 2 mps 753 mmHg 57%
19:00 +29°C° 0 mm 2 mps 753 mmHg 63%
20:00 +27°C° 0 mm 1 mps 753 mmHg 68%
21:00 +26°C° 0.1 mm 2 mps 753 mmHg 71%
22:00 +26°C° 0.1 mm 2 mps 753 mmHg 74%
23:00 +25°C° 0.1 mm 2 mps 752 mmHg 77%

13 July, Monday

Time Temperature Precipitation Wind Pressure Humidity
00:00 +25°C° 0.3 mm 3 mps 752 mmHg 79%
01:00 +24°C° 0.3 mm 3 mps 752 mmHg 80%
02:00 +24°C° 0.3 mm 3 mps 752 mmHg 82%
03:00 +24°C° 0.3 mm 3 mps 752 mmHg 83%
04:00 +24°C° 0.3 mm 3 mps 751 mmHg 84%
05:00 +22°C° 0.3 mm 3 mps 751 mmHg 85%
06:00 +25°C° 0 mm 4 mps 751 mmHg 76%
07:00 +27°C° 0 mm 4 mps 751 mmHg 68%
08:00 +29°C° 0 mm 4 mps 751 mmHg 59%
09:00 +32°C° 0.1 mm 5 mps 752 mmHg 52%
10:00 +33°C° 0.1 mm 5 mps 752 mmHg 45%
11:00 +34°C° 0.1 mm 5 mps 752 mmHg 38%
12:00 +34°C° 0 mm 5 mps 752 mmHg 39%
13:00 +34°C° 0 mm 5 mps 752 mmHg 39%
14:00 +33°C° 0 mm 4 mps 752 mmHg 40%
15:00 +32°C° 0.1 mm 4 mps 752 mmHg 44%
16:00 +30°C° 0.1 mm 4 mps 752 mmHg 47%
17:00 +29°C° 0.1 mm 4 mps 752 mmHg 51%
18:00 +27°C° 0.5 mm 4 mps 752 mmHg 56%
19:00 +26°C° 0.5 mm 4 mps 753 mmHg 61%
20:00 +25°C° 0.5 mm 4 mps 753 mmHg 66%
21:00 +22°C° 0.5 mm 5 mps 753 mmHg 73%
22:00 +21°C° 0.5 mm 6 mps 754 mmHg 80%
23:00 +19°C° 0.5 mm 6 mps 754 mmHg 86%

14 July, Tuesday

Time Temperature Precipitation Wind Pressure Humidity
00:00 +19°C° 0.1 mm 6 mps 754 mmHg 85%
01:00 +17°C° 0.1 mm 6 mps 754 mmHg 84%
02:00 +17°C° 0.1 mm 6 mps 755 mmHg 83%
03:00 +17°C° 0 mm 6 mps 755 mmHg 82%
04:00 +16°C° 0 mm 6 mps 755 mmHg 81%
05:00 +16°C° 0 mm 6 mps 755 mmHg 79%
06:00 +17°C° 0 mm 6 mps 756 mmHg 72%
07:00 +20°C° 0 mm 6 mps 756 mmHg 64%
08:00 +21°C° 0 mm 6 mps 757 mmHg 57%
09:00 +23°C° 0 mm 6 mps 757 mmHg 50%
10:00 +24°C° 0 mm 6 mps 757 mmHg 43%
11:00 +27°C° 0 mm 6 mps 757 mmHg 35%
12:00 +27°C° 0 mm 5 mps 757 mmHg 33%
13:00 +28°C° 0 mm 5 mps 757 mmHg 31%
14:00 +29°C° 0 mm 5 mps 757 mmHg 29%
15:00 +28°C° 0 mm 5 mps 757 mmHg 31%
16:00 +28°C° 0 mm 4 mps 757 mmHg 32%
17:00 +27°C° 0 mm 4 mps 757 mmHg 34%
18:00 +25°C° 0 mm 4 mps 758 mmHg 41%
19:00 +22°C° 0 mm 3 mps 758 mmHg 48%
20:00 +20°C° 0 mm 3 mps 758 mmHg 55%
21:00 +19°C° 0 mm 3 mps 758 mmHg 58%
22:00 +19°C° 0 mm 3 mps 758 mmHg 61%
23:00 +18°C° 0 mm 3 mps 759 mmHg 64%

15 July, Wednesday

Time Temperature Precipitation Wind Pressure Humidity
00:00 +18°C° 0 mm 3 mps 759 mmHg 63%
01:00 +17°C° 0 mm 3 mps 759 mmHg 63%
02:00 +17°C° 0 mm 3 mps 759 mmHg 63%
03:00 +17°C° 0 mm 3 mps 759 mmHg 63%
04:00 +17°C° 0 mm 3 mps 759 mmHg 64%
05:00 +17°C° 0 mm 3 mps 759 mmHg 64%
06:00 +20°C° 0 mm 3 mps 760 mmHg 56%
07:00 +23°C° 0 mm 2 mps 760 mmHg 48%
08:00 +25°C° 0 mm 2 mps 760 mmHg 40%
09:00 +26°C° 0 mm 3 mps 760 mmHg 37%
10:00 +27°C° 0 mm 3 mps 760 mmHg 34%
11:00 +29°C° 0 mm 3 mps 760 mmHg 31%
12:00 +29°C° 0 mm 3 mps 760 mmHg 30%
13:00 +29°C° 0 mm 3 mps 760 mmHg 30%
14:00 +30°C° 0 mm 4 mps 759 mmHg 30%
15:00 +29°C° 0 mm 3 mps 759 mmHg 30%
16:00 +29°C° 0 mm 3 mps 759 mmHg 30%
17:00 +29°C° 0 mm 3 mps 759 mmHg 31%
18:00 +27°C° 0 mm 2 mps 759 mmHg 37%
19:00 +25°C° 0 mm 2 mps 759 mmHg 44%
20:00 +23°C° 0 mm 1 mps 760 mmHg 51%
21:00 +21°C° 0 mm 2 mps 760 mmHg 53%
22:00 +21°C° 0 mm 2 mps 759 mmHg 56%
23:00 +20°C° 0 mm 2 mps 759 mmHg 59%
Show more